Regional Weather Roundup
Issued by NWS

Home | Current Version | Previous Version | Text Only | Print | Product List | Glossary On
Versions: 1 2 3 4 5 6 7 8 9 10 11 12 13 14 15 16 17 18 19 20 21 22 23 24 25 26 27 28 29 30 31 32 33 34 35 36 37 38 39 40 41 42 43 44 45 46 47 48 49 50
473
ASUS43 KLSX 291307
RWRMO

WEATHER SUMMARY FOR MISSOURI
NATIONAL WEATHER SERVICE SPRINGFIELD MO
800 AM CDT MON MAY 29 2017

NOTE: "FAIR" INDICATES FEW OR NO CLOUDS BELOW 12,000 FEET WITH NO
       SIGNIFICANT WEATHER AND/OR OBSTRUCTIONS TO VISIBILITY.
       CURRENT SKY AND/OR WEATHER CONDITIONS ARE NOT AVAILABLE FOR
       CHILLICOTHE AND FARMINGTON.

MOZ001>031-035>038-043-044-053-054-291400-
...NORTHERN AND WESTERN MISSOURI...

CITY           SKY/WX    TMP DP  RH WIND       PRES   REMARKS
KANSAS CTY INT MOSUNNY   65  54  67 W9        29.93F
KANSAS C DTWN  SUNNY     64  55  72 SW7       29.93F
LEE`S SUMMIT   SUNNY     63  54  72 W6        29.95R
ST JOSEPH      SUNNY     64  53  67 NW7       29.94R
CHILLICOTHE      N/A     64  49  57 VRB3      29.93R
KIRKSVILLE     MOSUNNY   61  51  70 NW9       29.93R

$$
MOZ066>068-077>081-088>096-101>105-291400-
...SOUTHWEST MISSOURI...

CITY           SKY/WX    TMP DP  RH WIND       PRES   REMARKS
SPRINGFIELD    SUNNY     66  56  70 W8        30.00R
JOPLIN         SUNNY     69  57  65 SW8       30.00S
BRANSON        PTSUNNY   64  55  72 SW3       30.03R

$$
MOZ032>034-039>042-045>050-055>058-069>072-291400-
...CENTRAL MISSOURI...

CITY           SKY/WX    TMP DP  RH WIND       PRES   REMARKS
COLUMBIA       SUNNY     63  58  83 S5        29.94S
JEFFERSON CITY SUNNY     65  57  75 CALM      29.95R
ROLLA          SUNNY     62  56  80 SW7       29.96S
SEDALIA        SUNNY     64  58  80 SW10      29.95S
WHITEMAN AFB   PTSUNNY   62  62 100 SW7       29.94S
WARRENSBURG    CLOUDY    59  54  82 S5        29.93F
OSAGE BEACH    SUNNY     61  56  83 S3        29.98S

$$
MOZ051-052-059>065-291400-
...EAST CENTRAL MISSOURI...

CITY           SKY/WX    TMP DP  RH WIND       PRES   REMARKS
ST LOUIS INTL  MOSUNNY   69  55  60 W9        29.93R
SPIRIT OF STL  MOSUNNY   66  57  72 W7        29.93R
ST CHARLES     SUNNY     66  56  70 W7        29.92R

$$
MOZ072>076-082>087-097>100-106>115-291400-
...SOUTH CENTRAL AND SOUTHEAST MISSOURI...

CITY           SKY/WX    TMP DP  RH WIND       PRES   REMARKS
CAPE GIRARDEAU MOSUNNY   66  59  78 W5        29.96R
FARMINGTON     SUNNY     65  59  81 CALM      29.98R
POPLAR BLUFF   MOSUNNY   67  59  75 CALM      29.97R
WEST PLAINS    SUNNY     65  58  78 W6        30.01R

$$



USA.gov is the U.S. government's official web portal to all federal, state and local government web resources and services.